#timestamp,LO_Frequency,Hit,StdDev 
1570849215.3,286046998.7,N
1570849235.1,286046996.5,N
1570849255.9,286046996.8,N
1570849275.7,286046995.4,N
1570849295.6,286046995.1,N
1570849315.4,286046996.7,N
1570849335.2,286046996.1,N
1570849355.1,286046997.4,N
1570849356.0,286046997.4,N
1570849375.8,286046999.5,N
1570849395.7,286046997.6,N
1570849415.5,286046998.2,N
1570849435.3,286046998.5,N
1570849455.2,286046999.9,N
1570849475.0,286046998.9,N
1570849475.9,286046998.9,N
1570849495.8,286047001.1,N
1570849515.6,286046998.7,N
1570849535.4,286046998.6,N
1570849555.3,286046995.0,N
1570849575.1,286046999.4,N
1570849595.8,286046999.9,N
1570849615.7,286046998.2,N
1570849635.5,286046996.8,N
1570849655.4,286046998.1,N
1570849675.2,286046998.1,N
1570849695.0,286046997.0,N
1570849695.9,286046997.0,N
1570849715.8,286046998.5,N
1570849735.6,286047000.5,N
1570849755.5,286046999.5,N
1570849775.3,286047000.4,N
1570849795.1,286046999.0,N
1570849815.9,286046997.8,N
1570849835.7,286046998.7,N
1570849855.5,286047011.9,Y
1570849875.4,286047005.9,P
1570849895.2,286047003.5,N
1570849915.1,286047002.6,N
1570849916.0,286047002.6,N
1570849935.8,286047001.8,N
1570849955.6,286047003.5,N
1570849975.5,286047004.1,N
1570849995.3,286047002.7,N
1570850015.1,286047003.6,N
1570850035.9,286047002.2,N
1570850055.7,286047003.9,N
1570850075.6,286047000.2,N
1570850095.4,286047000.0,N
1570850115.2,286047002.7,N
1570850135.1,286047001.7,N
1570850136.0,286047001.7,N
1570850155.8,286047001.9,N
1570850175.6,286047004.0,N
1570850195.5,286047004.1,N
1570850215.3,286047002.6,N
1570850235.2,286047003.7,N
1570850255.0,286047002.6,N
1570850255.9,286047002.6,N
1570850275.7,286046998.1,N
1570850295.6,286047001.1,N
1570850315.4,286047003.2,N
1570850335.3,286047004.3,N
1570850355.1,286047002.0,N
1570850375.8,286047002.4,N
1570850395.7,286047000.8,N
1570850415.5,286046997.5,N
1570850435.4,286046999.6,N
1570850455.2,286047001.2,N
1570850475.0,286046999.3,N
1570850475.9,286046999.3,N
1570850495.8,286046998.8,N
1570850515.6,286047002.4,N
1570850535.4,286046999.9,N
1570850555.3,286046999.9,N
1570850575.1,286047001.1,N
1570850595.9,286046998.1,N
1570850615.7,286047003.8,N
1570850635.5,286047004.4,N
1570850655.4,286047002.1,N
1570850675.2,286047003.5,N
1570850695.0,286047003.9,N
1570850695.9,286047003.9,N
1570850715.8,286047004.0,N
1570850735.6,286047002.0,N
1570850755.5,286047002.5,N
1570850775.3,286047003.7,N
1570850795.1,286047004.2,N
1570850815.9,286047001.4,N
1570850835.7,286047003.8,N
1570850855.5,286047003.2,N
1570850875.4,286047003.1,N
1570850895.2,286047003.5,N
1570850915.0,286047005.6,N
1570850916.0,286047005.6,N
1570850935.8,286047005.2,N
1570850955.6,286047004.6,N
1570850975.5,286047005.0,N
1570850995.3,286047005.5,N
1570851015.1,286047004.1,N
1570851035.9,286047003.5,N
1570851055.7,286047006.0,Y
1570851075.6,286047001.1,P
1570851095.4,286047002.5,N
1570851115.2,286047002.8,P
1570851135.1,286047001.8,N
1570851136.0,286047001.8,N
1570851155.8,286047000.5,N
1570851175.7,286047007.5,Y
1570851195.5,286047000.4,P
1570851215.3,286046998.7,N
1570851235.2,286046998.4,N
1570851255.9,286047000.6,N
1570851275.7,286047006.0,Y
1570851295.6,286047005.9,P
1570851315.4,286047003.3,N
1570851335.3,286047009.0,P
1570851355.1,286047010.7,Y
1570851356.0,286047010.7,P
1570851375.8,286047007.4,N
1570851395.7,286047005.7,N
1570851415.5,286047004.5,N
1570851435.3,286047010.8,Y
1570851455.2,286047000.9,P
1570851475.0,286047005.4,N
1570851475.9,286047005.4,N
1570851495.8,286047001.4,N
1570851515.6,286047003.6,N
1570851535.4,286047009.1,Y
1570851555.3,286047003.4,P
1570851575.1,286047006.3,P
1570851595.9,286047009.2,P
1570851615.7,286047006.7,N
1570851635.5,286047006.6,Y
1570851655.4,286047003.2,P
1570851675.2,286047005.6,P
1570851695.0,286047001.5,N
1570851695.9,286047001.5,N
1570851715.8,286047001.3,N
1570851735.6,286047001.8,N
1570851755.5,286047005.5,N
1570851775.3,286047008.6,Y
1570851795.1,286047003.6,P
1570851815.9,286047005.7,P
1570851835.7,286047006.5,P
1570851855.6,286047006.5,Y
1570851875.4,286047005.1,P
1570851895.2,286047002.1,P
1570851915.1,286047002.5,N
1570851916.0,286047002.5,N
1570851935.8,286047004.2,Y
1570851955.6,286046998.2,P
1570851975.5,286047004.0,N
1570851995.3,286047005.3,N
1570852015.2,286047002.1,N
1570852035.9,286047004.4,N
1570852055.7,286047003.3,N
1570852075.6,286047002.5,N
1570852095.4,286047002.1,N
1570852115.2,286047004.3,N
1570852135.1,286046998.4,N
1570852136.0,286046998.4,N
1570852155.8,286047002.0,N
1570852175.7,286047003.8,N
1570852195.5,286047000.5,N
1570852215.3,286046999.7,N
1570852235.2,286046998.5,N
1570852255.0,286047004.8,N
1570852255.9,286047004.8,N
1570852275.7,286047007.3,Y
1570852295.6,286047002.3,P
1570852315.4,286046999.7,P
1570852335.3,286047001.7,N
1570852355.1,286047005.1,Y
1570852375.8,286047009.1,P
1570852395.7,286047005.0,N
1570852415.5,286047003.2,N
1570852435.3,286047003.8,N
1570852455.2,286047001.0,N
1570852475.0,286047002.6,N
1570852475.9,286047002.6,N
1570852495.8,286047003.4,N
1570852515.6,286047002.2,N
1570852535.4,286047005.8,N
1570852555.3,286047005.9,N
1570852575.1,286047006.2,N
1570852595.9,286047006.6,N
1570852615.7,286047004.2,N
1570852635.5,286047005.0,N
1570852655.4,286047007.6,Y
1570852675.2,286047004.1,P
1570852695.0,286047000.8,P
1570852695.9,286047000.8,N
1570852715.8,286047001.9,N
1570852735.6,286047001.6,N
1570852755.5,286047003.5,N
1570852775.3,286047005.3,Y
1570852795.1,286047004.0,P
